Mobile, AL

4:06 PM CST on November 11, 2019 (GMT -0600)
Mobile Regional

Weather History for KMOB - October, 2019

Change the Weather History Date:

Sunday, October 13, 2019

  Actual Average Record
Temperature  
Mean Temperature 72 °F 69 °F  
Max Temperature 82 °F 80 °F 92 °F (1963)
Min Temperature 60 °F 59 °F 41 °F (1977)
Degree Days  
Heating Degree Days 0 1  
Month to date heating degree days 0 9  
Since 1 July heating degree days 0 11  
Cooling Degree Days 6 5  
Month to date cooling degree days 196 89  
Year to date cooling degree days 3031 2393  
Growing Degree Days 22 (Base 50)    
Moisture  
Dew Point 62 °F    
Average Humidity 81    
Maximum Humidity 97    
Minimum Humidity 62    
Precipitation  
Precipitation 0.00 in 0.11 in 2.98 in (1912)
Month to date precipitation 0.04 1.57  
Year to date precipitation 46.47 53.84  
Sea Level Pressure  
Sea Level Pressure 30.03 in    
Wind  
Wind Speed 6 mph ()    
Max Wind Speed 14 mph    
Max Gust Speed 18 mph    
Visibility 9.9 miles    
Events      
T = Trace of Precipitation, MM = Missing Value Source: Averaged Metar Reports

Daily Weather History Graph

Daily Weather History Graph

Search for Another Location

Airport or City:

Astronomy

Oct. 13, 2019 Rise Set
Actual Time 6:53 AM CDT 6:24 PM CDT
Civil Twilight 6:29 AM CDT 6:48 PM CDT
Nautical Twilight 6:01 AM CDT 7:16 PM CDT
Astronomical Twilight 5:33 AM CDT 7:44 PM CDT
Moon 6:42 PM CDT (10/13) 6:33 AM CDT (10/13)
Length of Visible Light 12h 18m
Length of Day
11h 30m
Full, 100% of the Moon is Illuminated
Oct 13
Full
Oct 13
Full
Oct 21
Last Quarter
Oct 27
New
Nov 4
First Quarter

Hourly Weather History & Observations

Time (CDT) Temp. Heat Index Dew Point Humidity Pressure Visibility Wind Dir Wind Speed Gust Speed Precip Events Conditions
12:56 AM 61.0 °F - 57.9 °F 90% 30.02 in 10.0 mi NNE 8.1 mph - N/A   Mostly Cloudy
1:08 AM 60.1 °F - 57.9 °F 93% 30.02 in 10.0 mi NNE 6.9 mph - N/A   Mostly Cloudy
1:53 AM 60.8 °F - 59.0 °F 94% 30.00 in 10.0 mi NE 6.9 mph - N/A   Mostly Cloudy
1:56 AM 60.1 °F - 59.0 °F 96% 30.00 in 10.0 mi NNE 6.9 mph - N/A   Mostly Cloudy
2:14 AM 60.1 °F - 59.0 °F 96% 30.01 in 10.0 mi NNE 6.9 mph - N/A   Overcast
2:49 AM 60.8 °F - 59.0 °F 94% 30.00 in 10.0 mi NE 5.8 mph - N/A   Overcast
2:56 AM 61.0 °F - 59.0 °F 93% 29.99 in 10.0 mi NE 6.9 mph - N/A   Overcast
3:56 AM 62.1 °F - 60.1 °F 93% 29.99 in 10.0 mi North 3.5 mph - N/A   Overcast
4:49 AM 62.1 °F - 60.1 °F 93% 30.02 in 10.0 mi NW 5.8 mph - N/A   Overcast
4:56 AM 62.1 °F - 60.1 °F 93% 30.02 in 10.0 mi NW 3.5 mph - N/A   Overcast
5:56 AM 63.0 °F - 60.1 °F 90% 30.04 in 8.0 mi NNW 6.9 mph - N/A   Overcast
6:56 AM 64.0 °F - 61.0 °F 90% 30.04 in 10.0 mi NE 3.5 mph - N/A   Mostly Cloudy
7:32 AM 64.0 °F - 60.1 °F 87% 30.05 in 10.0 mi NNW 5.8 mph - N/A   Mostly Cloudy
7:56 AM 64.0 °F - 60.1 °F 87% 30.06 in 10.0 mi NNW 6.9 mph - N/A   Overcast
8:29 AM 64.9 °F - 61.0 °F 87% 30.07 in 10.0 mi North 6.9 mph - N/A   Overcast
8:56 AM 64.9 °F - 61.0 °F 87% 30.07 in 10.0 mi North 8.1 mph - N/A   Overcast
9:56 AM 68.0 °F - 62.1 °F 81% 30.08 in 10.0 mi NNW 4.6 mph - N/A   Overcast
10:26 AM 71.1 °F - 63.0 °F 75% 30.08 in 10.0 mi NNE 5.8 mph - N/A   Mostly Cloudy
10:56 AM 73.0 °F - 64.0 °F 73% 30.06 in 10.0 mi Variable 5.8 mph - N/A   Mostly Cloudy
11:56 AM 78.1 °F - 66.0 °F 66% 30.05 in 10.0 mi NNW 6.9 mph - N/A   Mostly Cloudy
12:56 PM 80.1 °F 82.3 °F 66.9 °F 64% 30.04 in 10.0 mi NNW 10.4 mph - N/A   Mostly Cloudy
1:56 PM 80.1 °F 82.3 °F 66.9 °F 64% 30.01 in 10.0 mi NNE 5.8 mph - N/A   Scattered Clouds
2:56 PM 82.0 °F 84.9 °F 68.0 °F 62% 30.00 in 10.0 mi North - - N/A   Partly Cloudy
3:33 PM 82.0 °F 84.9 °F 68.0 °F 62% 30.00 in 10.0 mi Variable 3.5 mph - N/A   Mostly Cloudy
3:43 PM 81.0 °F 83.8 °F 68.0 °F 65% 30.00 in 10.0 mi North 8.1 mph - N/A   Scattered Clouds
3:56 PM 81.0 °F 83.8 °F 68.0 °F 65% 30.00 in 10.0 mi NE 9.2 mph - N/A   Partly Cloudy
4:56 PM 79.0 °F - 66.9 °F 66% 30.01 in 10.0 mi NNE 9.2 mph - N/A   Scattered Clouds
5:56 PM 75.9 °F - 66.9 °F 74% 30.01 in 10.0 mi NNE 8.1 mph - N/A   Scattered Clouds
6:56 PM 72.0 °F - 64.9 °F 78% 30.03 in 10.0 mi North 8.1 mph - N/A   Scattered Clouds
7:56 PM 71.1 °F - 62.1 °F 73% 30.05 in 10.0 mi North 9.2 mph - N/A   Mostly Cloudy
8:10 PM 70.0 °F - 62.1 °F 76% 30.06 in 10.0 mi North 6.9 mph - N/A   Mostly Cloudy
9:56 PM 68.0 °F - 60.1 °F 76% 30.06 in 10.0 mi NNE 5.8 mph - N/A   Scattered Clouds
10:56 PM 66.9 °F - 60.1 °F 79% 30.06 in 10.0 mi NNE 4.6 mph - N/A   Scattered Clouds
11:56 PM 64.9 °F - 60.1 °F 84% 30.05 in 10.0 mi NNE 4.6 mph - N/A   Clear